Gibraltar, Gibraltar

3:01 PM CEST on June 28, 2017 (GMT +0200)
Gibraltar Air Base

Weather History for LXGB - May, 2014

Change the Weather History Date:

Tuesday, May 6, 2014

  Actual Average Record
Temperature  
Mean Temperature 66 °F -  
Max Temperature 70 °F 71 °F 76 °F (2015)
Min Temperature 63 °F 60 °F 53 °F (2003)
Cooling Degree Days 2    
Growing Degree Days 16 (Base 50)    
Moisture  
Dew Point 58 °F    
Average Humidity 75    
Maximum Humidity 88    
Minimum Humidity 58    
Precipitation  
Precipitation 0.00 in - - ()
Sea Level Pressure  
Sea Level Pressure 30.01 in    
Wind  
Wind Speed 15 mph ()    
Max Wind Speed 22 mph    
Max Gust Speed -    
Visibility 6.5 miles    
Events      
Averages and records for this station are not official NWS values.
T = Trace of Precipitation, MM = Missing Value Source: Averaged Metar Reports

Daily Weather History Graph

Daily Weather History Graph

Search for Another Location

Airport or City:

Trip Planner

Search our weather history database for the weather conditions in past years. The results will help you decide how hot, cold, wet, or windy it might be!

Date:

Astronomy

May. 06, 2014 Rise Set
Actual Time 7:23 AM CEST 9:12 PM CEST
Civil Twilight 6:55 AM CEST 9:40 PM CEST
Nautical Twilight 6:22 AM CEST 10:14 PM CEST
Astronomical Twilight 5:46 AM CEST 10:50 PM CEST
Moon 1:24 PM CEST (5/6) 2:25 AM CEST (5/6)
Length of Visible Light 14h 45m
Length of Day
13h 49m
Waxing Crescent, 43% of the Moon is Illuminated
May 6
Waxing Crescent
May 7
First Quarter
May 14
Full
May 21
Last Quarter
May 28
New

Hourly Weather History & Observations

Time (CEST) Temp. Dew Point Humidity Pressure Visibility Wind Dir Wind Speed Gust Speed Precip Events Conditions
12:00 AM 65 °F 60 °F 81% 30.00 in 8 mi East 16.1 mph - -  
12:50 AM 64.4 °F 59.0 °F 83% 29.98 in 6.2 mi East 16.1 mph - N/A   Unknown
1:00 AM 64 °F 59 °F 77% 29.99 in 9 mi East 16.1 mph - -  
1:50 AM 64.4 °F 57.2 °F 77% 29.98 in 6.2 mi East 16.1 mph - N/A   Unknown
2:00 AM 64 °F 57 °F 73% 29.99 in 9 mi East 16.1 mph - -  
2:50 AM 64.4 °F 57.2 °F 77% 29.98 in 6.2 mi East 18.4 mph - N/A   Unknown
3:00 AM 64 °F 56 °F 70% 29.99 in 9 mi East 18.4 mph - -  
3:50 AM 64.4 °F 53.6 °F 68% 29.98 in 6.2 mi East 20.7 mph - N/A   Unknown
4:00 AM 64 °F 54 °F 63% 29.98 in 9 mi East 20.7 mph - -  
4:50 AM 64.4 °F 57.2 °F 77% 29.95 in 6.2 mi East 21.9 mph - N/A   Unknown
5:00 AM 64 °F 57 °F 70% 29.97 in 9 mi East 21.9 mph - -  
5:50 AM 64.4 °F 57.2 °F 77% 29.98 in 6.2 mi East 19.6 mph - N/A   Unknown
6:00 AM 64 °F 58 °F 74% 29.98 in 8 mi East 19.6 mph - -  
6:50 AM 62.6 °F 59.0 °F 88% 29.98 in 6.2 mi ESE 13.8 mph - N/A   Partly Cloudy
7:00 AM 63 °F 59 °F 81% 29.98 in 7 mi ESE 13.8 mph - -   Scattered Clouds
7:50 AM 62.6 °F 59.0 °F 88% 29.98 in 6.2 mi East 13.8 mph - N/A   Scattered Clouds
8:00 AM 63 °F 59 °F 82% 29.99 in 6 mi East 13.8 mph - -   Mostly Cloudy
8:50 AM 64.4 °F 59.0 °F 83% 30.01 in 6.2 mi East 16.1 mph - N/A   Scattered Clouds
9:00 AM 64 °F 58 °F 77% 30.01 in 6 mi East 16.1 mph - -   Mostly Cloudy
9:50 AM 64.4 °F 59.0 °F 83% 30.01 in 6.2 mi East 16.1 mph - N/A   Partly Cloudy
10:00 AM 65 °F 58 °F 73% 30.03 in 7 mi East 16.1 mph - -   Scattered Clouds
1:50 PM 68.0 °F 59.0 °F 73% 30.06 in 6.2 mi East 16.1 mph - N/A   Partly Cloudy
2:00 PM 69 °F 59 °F 61% 30.06 in 7 mi East 16.1 mph - -   Scattered Clouds
2:50 PM 69.8 °F 59.0 °F 68% 30.04 in 6.2 mi East 16.1 mph - N/A   Partly Cloudy
3:00 PM 70 °F 58 °F 58% 30.05 in 7 mi East 16.1 mph - -   Scattered Clouds
3:50 PM 68.0 °F 59.0 °F 73% 30.04 in 6.2 mi East 16.1 mph - N/A   Partly Cloudy
4:00 PM 69 °F 58 °F 61% 30.04 in 7 mi East 16.1 mph - -   Scattered Clouds
4:50 PM 68.0 °F 59.0 °F 73% 30.01 in 5.6 mi East 13.8 mph - N/A   Haze
5:00 PM 68 °F 59 °F 65% 30.02 in 6 mi East 13.8 mph - -   Haze
5:50 PM 68.0 °F 59.0 °F 73% 30.01 in 6.2 mi East 12.7 mph - N/A   Partly Cloudy
6:00 PM 67 °F 59 °F 68% 30.02 in 6 mi East 12.7 mph - -   Scattered Clouds
6:50 PM 66.2 °F 59.0 °F 78% 29.98 in 6.2 mi ESE 13.8 mph - N/A   Partly Cloudy
7:00 PM 67 °F 58 °F 66% 30.00 in 6 mi ESE 13.8 mph - -   Scattered Clouds
7:50 PM 66.2 °F 59.0 °F 78% 30.01 in 5.6 mi ESE 15.0 mph - N/A   Haze
8:00 PM 66 °F 58 °F 69% 30.01 in 6 mi ESE 15.0 mph - -   Haze
8:50 PM 66.2 °F 57.2 °F 73% 30.01 in 5.6 mi ESE 13.8 mph - N/A   Haze
9:00 PM 66 °F 56 °F 63% 30.02 in 6 mi ESE 13.8 mph - -   Haze
9:50 PM 64.4 °F 59.0 °F 83% 30.04 in 5.6 mi East 9.2 mph - N/A   Haze
10:00 PM 65 °F 59 °F 76% 30.04 in 6 mi East 9.2 mph - -   Haze
10:50 PM 64.4 °F 59.0 °F 83% 30.04 in 4.3 mi East 6.9 mph - N/A   Haze
11:00 PM 64 °F 60 °F 82% 30.05 in 4 mi East 6.9 mph - -   Haze
11:50 PM 64.4 °F 60.8 °F 88% 30.06 in 6.2 mi East 8.1 mph - N/A   Overcast